Tracking 31027 objects as of 19-Jul-2025
HD Live streaming from Space Station
objects crossing your sky now

ONEWEB-0625

Track ONEWEB-0625 now!
10-day predictions
ONEWEB-0625 is classified as:


NORAD ID: 55166
Int'l Code: 2023-004AC
Perigee: 1,199.4 km
Apogee: 1,202.3 km
Inclination: 87.9 °
Period: 109.3 minutes
Semi major axis: 7571 km
RCS: Unknown
Launch date: January 10, 2023
Source: United Kingdom (UK)
Launch site: AIR FORCE WESTERN TEST RANGE (AFWTR)
Your satellite tracking list
Your tracking list is empty




NASA's NSSDC Master Catalog

Two Line Element Set (TLE):
1 55166U 23004AC  25199.34448095  .00000050  00000-0  94437-4 0  9991
2 55166  87.9050  72.3450 0001944  82.3009 277.8343 13.17647738123619
Source of the keplerian elements: AFSPC